Погода в Холь-Оожу

Россия / Республика Тыва     50°44′24″N   94°24′49″E
темп.,
°C
ветер,
м/с
пор.,
м/с
влажн.,
%
обл.,
%
осадки,
мм/ч
давл.,
гПа
погр.,
м
21 января, чт
чт2101:00−20юз0171100 0.0 103321
04:00−20ююз117198 0.0 103224
07:00−19ююв017099 0.0 103223
10:00−19ююз117399 0.0 103155
13:00−17юз2275100 0.0 1030102
16:00−19ююз018896 0.0 102831
19:00−20ю017996 0.0 102822
22:00−19ююз118096 0.0 102725
22 января, пт
пт2201:00−21юв017894 0.0 102621
04:00−22всв018412 0.0 102521
07:00−21ю019346 0.0 102325
10:00−19ююз129798 0.0 102264
13:00−17ююз239898 0.0 1019126
16:00−18юз1399100 0.0 101995
19:00−22зсз0110080 0.0 102024
22:00−20юв01100100 0.0 102028
23 января, сб
сб2301:00−21зюз1199100 0.0 102130
04:00−20юз11100100 0.0 102034
07:00−18зсз1194100 0.0 102222
10:00−15ссв0190100 0.0 102567
13:00−14с1395100 0.4 1026167
16:00−14с2590100 0.6 1027259
19:00−16с3792100 0.9 1029284
22:00−17с3792100 0.3 1031334
24 января, вс
вс2401:00−17ссв3688100 0.3 1032265
04:00−18ссв3488100 0.0 1033143
07:00−18ссв3488100 0.1 1034108
10:00−17ссв2490100 0.0 1035132
13:00−16ссв1386100 0.1 1033305
16:00−17ссв0294100 0.1 1033172
19:00−19ссв2295100 0.4 103543
22:00−20ссв2289100 0.1 103537
25 января, пн
пн2501:00−21св2285100 0.1 103520
04:00−22ссв2276100 0.0 103520
07:00−22ссв1272100 0.0 103620
10:00−20св1182100 0.0 103725
13:00−19ю1187100 0.1 1036255
16:00−20ююз1198100 0.1 103777
19:00−22св2293100 0.3 103921
22:00−23ссв2290100 0.1 104022